Starlink 33808

operational
NORAD ID: 63767 Int'l Des: 2025-089 Owner: SPXS Country: US Constellation: starlink
LEOCIRCULAR

Starlink 33808について

説明を読み込み中...

リアルタイム位置

3D地球を読み込み中...

次回通過

高度履歴

Altitude vs Time

uPlot chart will show altitude changes over time

軌道要素

1 63767U 25089S 25305.70293661 .00046680 00000-0 16933-2 0 9990
2 63767 43.0009 48.0361 0001401 265.4972 94.5719 15.27615272 29385
Epoch: Nov 1, 2025 • Age: 54 hours

現在のステータス

高度 482.3 km
速度 7.63 km/s
衛星直下点 20.21°N, 165.67°E
打ち上げ日 Apr 29, 2025
運用期間 0.5 years
タイプ internet

技術仕様

分類 Payload
質量 575.00 kg
乾燥質量 530.00 kg
総質量 575.00 kg
長さ 0.30 m
直径 4.10 m
スパン 29.00 m
形状 Box + pan
製造者 SPXS
バスタイプ Starlink V2MO
フェーズステータス In Orbit
所有者/国 SPXS/US

大規模コンステレーション

Loading constellations...